TimePDT,TemperatureF,Dew PointF,Humidity,Sea Level PressureIn,VisibilityMPH,Wind Direction,Wind SpeedMPH,Gust SpeedMPH,PrecipitationIn,Events,Conditions,WindDirDegrees,DateUTC
12:53 AM,62.1,55.0,78,29.89,10.0,SSE,3.5,-,N/A,,Mostly Cloudy,160,2013-09-16 07:53:00
1:53 AM,62.1,55.9,80,29.90,10.0,Calm,Calm,-,N/A,,Overcast,0,2013-09-16 08:53:00
2:53 AM,62.1,55.9,80,29.91,10.0,South,4.6,-,N/A,,Overcast,190,2013-09-16 09:53:00
3:53 AM,62.1,55.9,80,29.92,10.0,Variable,3.5,-,N/A,,Overcast,0,2013-09-16 10:53:00
4:53 AM,62.1,55.9,80,29.93,10.0,SSE,4.6,-,N/A,,Overcast,150,2013-09-16 11:53:00
5:53 AM,62.1,55.0,78,29.94,10.0,South,5.8,-,N/A,,Overcast,170,2013-09-16 12:53:00
6:53 AM,61.0,55.0,81,29.94,10.0,SW,5.8,-,N/A,,Overcast,220,2013-09-16 13:53:00
7:53 AM,62.1,55.0,78,29.95,10.0,South,4.6,-,N/A,,Overcast,170,2013-09-16 14:53:00
8:53 AM,62.1,55.0,78,29.96,10.0,South,4.6,-,N/A,,Overcast,180,2013-09-16 15:53:00
9:53 AM,63.0,55.0,75,29.96,10.0,SSW,4.6,-,N/A,,Overcast,200,2013-09-16 16:53:00
10:53 AM,64.0,55.9,75,29.97,10.0,Variable,4.6,-,N/A,,Overcast,0,2013-09-16 17:53:00
11:40 AM,64.4,55.4,73,29.97,10.0,Calm,Calm,-,N/A,,Overcast,0,2013-09-16 18:40:00
11:53 AM,66.0,55.0,68,29.98,10.0,Variable,3.5,-,N/A,,Overcast,0,2013-09-16 18:53:00
12:45 PM,66.2,55.4,68,29.98,10.0,Calm,Calm,-,N/A,,Overcast,0,2013-09-16 19:45:00
12:53 PM,66.9,55.9,68,29.98,10.0,SW,4.6,-,N/A,,Overcast,220,2013-09-16 19:53:00
1:53 PM,68.0,55.0,63,29.97,10.0,Variable,3.5,-,N/A,,Overcast,0,2013-09-16 20:53:00
2:53 PM,68.0,57.0,68,29.96,10.0,Variable,3.5,-,0.00,,Mostly Cloudy,0,2013-09-16 21:53:00
3:53 PM,68.0,57.0,68,29.95,10.0,WSW,3.5,-,N/A,,Overcast,240,2013-09-16 22:53:00
4:53 PM,66.9,55.0,66,29.94,10.0,Variable,4.6,-,N/A,,Overcast,0,2013-09-16 23:53:00
5:53 PM,66.9,55.9,68,29.94,10.0,Calm,Calm,-,N/A,,Overcast,0,2013-09-17 00:53:00
6:53 PM,66.9,55.9,68,29.93,10.0,Calm,Calm,-,N/A,,Overcast,0,2013-09-17 01:53:00
7:53 PM,64.9,57.9,78,29.93,10.0,NW,5.8,-,N/A,,Overcast,320,2013-09-17 02:53:00
8:53 PM,64.9,57.9,78,29.93,10.0,Calm,Calm,-,N/A,,Overcast,0,2013-09-17 03:53:00
9:53 PM,64.0,57.9,80,29.92,10.0,Calm,Calm,-,N/A,,Overcast,0,2013-09-17 04:53:00
10:53 PM,-9999,-9999,N/A,29.93,10.0,NNW,3.5,-,N/A,,Overcast,340,2013-09-17 05:53:00
11:53 PM,-9999,-9999,N/A,29.93,10.0,Variable,3.5,-,N/A,,Overcast,0,2013-09-17 06:53:00